Regional Weather Roundup
Issued by NWS

Home | Current Version | Previous Version | Text Only | Print | Product List | Glossary Off
Versions: 1 2 3 4 5 6 7 8 9 10 11 12 13 14 15 16 17 18 19 20 21 22 23 24 25 26 27 28 29 30 31 32 33 34 35 36 37 38 39 40 41 42 43 44 45 46 47 48 49 50

320
ASUS45 KSLC 230610
RWRUT

UTAH REGIONAL WEATHER ROUNDUP
NATIONAL WEATHER SERVICE SALT LAKE CITY UT
1200 AM MDT TUE MAY 23 2017

UTZ001>011-023>025-230700-

NORTHERN UTAH

CITY           SKY/WX    TMP DP  RH WIND       PRES   REMARKS
BRIGHAM CITY   PTCLDY    60  46  61 CALM      30.19R
HILL AFB       PTCLDY    57  40  51 E10       30.19S
LOGAN          MOCLDY    59  46  62 CALM      30.19R
OGDEN          PTCLDY    56  42  59 S6        30.17S
SALT LAKE CITY MOCLDY    63  44  50 S3        30.16S
TOOELE VALLEY  PTCLDY    52  41  66 S6        30.18S
WENDOVER       CLEAR     64  34  32 CALM      30.17R
HEBER CITY     MOCLDY    54  39  58 CALM      30.23S
WEST JORDAN    PTCLDY    59  49  70 CALM      30.19S

$$

UTZ011>015-024>027-230700-

CENTRAL/NORTHEAST UTAH

CITY           SKY/WX    TMP DP  RH WIND       PRES   REMARKS
PROVO AIRPORT  MOCLDY    55  44  66 S6        30.19S
MOAB/CANYONLAN CLEAR     64  37  36 NE29      30.11R
DELTA          PTCLDY    55  36  47 NE5       30.19S
PRICE          MOCLDY    56  39  53 NE23      30.24R
ROOSEVELT      MOCLDY    52  34  50 E17G23    30.35R
VERNAL         LGT RAIN  47  39  74 N9        30.35R

$$

UTZ013>016-019>022-027-230700-

SOUTHERN UTAH

CITY           SKY/WX    TMP DP  RH WIND       PRES   REMARKS
BRYCE CANYON   CLEAR     48  27  44 NW9       30.33R
CEDAR CITY     CLEAR     49  28  44 CALM      30.21S
MILFORD        CLEAR     52  31  44 NW7       30.20R
ST GEORGE      MOCLDY    76  29  17 NW6       30.03R
HANKSVILLE     CLEAR     68  28  22 NW3       30.14R
BLANDING       CLEAR     50  25  37 NW8       30.22S

$$

REGIONAL REPORTS     COLORADO/ARIZONA

CITY           SKY/WX    TMP DP  RH WIND       PRES   REMARKS
CRAIG, CO      CLOUDY    35  31  85 CALM      30.34S
GRAND JUNCTION CLOUDY    56  37  49 N16       30.25R
RIFLE, CO      CLOUDY    51  35  54 MISG      30.29R
MONTROSE, CO   LGT RAIN  52  42  69 NE18G26   30.25R
CORTEZ, CO     CLEAR     45  35  68 CALM      30.16R
COLORADO CITY    N/A     63  27  25 NE8       30.17S
PAGE, AZ       CLEAR     67  36  31 CALM      30.08R
GRAND CANYON   CLEAR     39  26  59 CALM      30.26R
KINGMAN, AZ    CLEAR     63  27  25 SE6       30.05S
FLAGSTAFF, AZ  CLEAR     45  26  47 CALM      30.27R

$$

REGIONAL REPORTS    NEVADA/IDAHO/WYOMING

CITY           SKY/WX    TMP DP  RH WIND       PRES   REMARKS
LAS VEGAS, NV  CLEAR     82  33  17 W5        29.92S
ELY, NY        CLEAR     42  26  53 S9        30.27R
ELKO, NV       CLEAR     55  40  56 E3        30.22R
POCATELLO, ID  CLEAR     53  40  61 S5        30.18R
BURLEY, ID     PTCLDY    55  43  63 SW8       30.15S
FORT BRIDGER,  CLOUDY    45  36  70 SE13      30.38S
EVANSTON, WY   CLOUDY    46  36  68 E15       30.32R
ROCK SPRINGS,  CLOUDY    40  34  79 S5        30.35R
KEMMERER, WY     N/A     41  32  70 E10       30.37R

$$




USA.gov is the U.S. government's official web portal to all federal, state and local government web resources and services.